Hovedside
METAR-TAF:

METAR-TAF

Lufthavner :

Siskiyou County Airport

Montague, California, USA

breddegrad: 41-46-53N, lengdegrad: 122-28-05W, høyde over havet: 807 m

Gjeldene værobservasjon

Denne rapporten ble laget for 43 minutter siden, klokken 10:53 UTC
Flau vind
Temperatur 2°C
Luftfuktighet 60%
Trykk 1014 hPa
Sikt: 16.1 km
Skyfri himmel

METAR: KSIY 221053Z AUTO 00000KT 10SM CLR 02/M05 A2994 RMK AO2 SLP143 T00171050

Tid: 04:36 (11:36 UTC)


TAF: fraværende

Værobservasjoner og værvarsel for over 4000 flyplasser (METAR- og TAF-rapporter).

Tilgjengelige stasjoner er representert av de røde og gule prikkene på kartet.

Hold musepekeren over prikken for å se navnet på stasjonen.

Klikk så for å se værobservasjoner og -varsler.

For å forandre kartet kan du klikke på den grønne knappen med svart kryss for å zoome inn, på den grønne knappen med strek for å zoome ut, eller på de grønne pilene for å se tilstøtende kart.


METAR-TAF: